[[{"header":{"parameterUnit":"m.s-1","parameterCategory":1,"la1":30.2991,"la2":30.254,"lo1":-89.0895,"lo2":-89.0444,"dy":0.0017,"dx":0.0017,"nx":28,"ny":28,"refTime":"2023-09-12T03:00:00:Z","depth":0,"parameterNumber":2,"parameterNumberName":"U-component_of_WINDS"},"data":[0,0,0,0,0,0,0,0,0,0,0,0,0,0,0,0,0,0,0,0,0,0,0,0,0,0,0,0,0,0,0,0,0,0,0,0,0,0,0,0,0,0,0,0,0,0,0,0,0,0,0,0,0,0,0,0,0,0,3.7952,3.7953,0,3.8038,3.8039,3.804,3.7983,3.7981,3.7978,3.7976,3.8062,3.8066,3.8071,0,0,0,0,0,0,0,0,0,0,0,0,0,3.7735,3.7739,3.7952,3.7953,3.7954,3.8038,3.8039,3.804,3.7984,3.7981,3.7977,3.7974,3.806,3.8066,3.8072,0,0,0,0,0,0,0,0,0,0,0,0,0,3.7826,3.7741,3.7951,3.7936,3.7935,3.8037,3.8039,3.804,3.7984,3.798,3.7977,3.7973,3.8058,3.8065,3.8072,3.8194,0,0,3.8094,3.8097,0,0,0,0,0,0,0,0,3.7821,3.7834,3.7937,3.7937,3.7937,3.7996,3.7994,3.8092,3.7985,3.7966,3.7976,3.7971,3.8043,3.8051,3.8076,3.8198,3.8202,3.8095,3.8099,3.8102,3.8104,0,0,0,0,0,0,0,3.7814,3.783,3.7986,3.7939,3.7938,3.7923,3.7932,3.8012,3.8025,3.7967,3.7963,3.7974,3.8042,3.8069,3.8077,3.8203,3.8094,3.8101,3.8105,3.8108,3.8425,3.8429,0,0,0,0,0,0,3.781,3.7825,3.7983,3.7988,3.7868,3.793,3.794,3.7981,3.8024,3.8027,3.7978,3.7971,3.8059,3.8069,3.808,3.8222,3.8102,3.8108,3.8113,3.8421,3.8426,3.8431,0,0,0,0,0,0,3.7805,3.7825,3.7979,3.7906,3.7924,3.7938,3.7984,3.7984,3.8011,3.8032,3.8034,3.8003,3.8056,3.807,3.8165,3.8224,3.8112,3.8118,3.8416,3.8423,3.8428,3.8509,0,0,0,0,0,0,3.7799,3.7823,3.7871,3.7907,3.7928,3.8065,3.7988,3.7989,3.8024,3.8017,3.8056,3.8059,3.8054,3.8155,3.8172,3.8232,3.8124,3.8411,3.8419,3.8426,3.8501,3.8518,3.8532,0,0,0,0,0,3.7792,3.789,3.7873,3.7893,3.7988,3.8068,3.808,3.8073,3.8029,3.8076,3.8088,3.8058,3.8216,3.8165,3.8184,3.8247,3.8407,3.8417,3.8426,3.8495,3.8514,3.8531,0,0,0,0,0,0,3.786,3.7895,3.7876,3.799,3.8026,3.8058,3.8117,3.8095,3.8144,3.8135,3.8124,3.8133,3.8232,3.825,3.8193,3.8365,3.8304,3.8318,3.835,3.8369,3.8384,3.8376,3.8129,0,0,0,0,0,3.7889,3.7952,3.7978,3.8076,3.8095,3.8103,3.8138,3.8129,3.8167,3.8182,3.8201,3.8238,3.8295,3.8334,3.8388,3.8504,3.851,3.8557,3.8572,3.8584,3.8595,3.8654,3.8674,3.8462,3.8462,3.8461,0,0,3.7948,3.7974,3.8015,3.809,3.8118,3.8181,3.8117,3.8188,3.8234,3.8192,3.8282,3.8298,3.8338,3.8444,3.8491,3.8461,3.8655,3.8596,3.8606,3.861,3.8666,3.8686,3.8704,3.8468,3.8467,3.8466,0,0,3.8087,3.8115,3.8198,3.8226,3.8268,3.8273,3.8293,3.8328,3.8337,3.8427,3.8396,3.8451,3.8552,3.858,3.8608,3.8756,3.8728,3.8774,3.8852,3.891,3.8927,3.8941,3.8991,3.9009,3.8786,3.8786,3.8786,0,3.8155,3.8251,3.8243,3.8316,3.8348,3.8313,3.8395,3.8423,3.8481,3.8504,3.847,3.8593,3.8617,3.8727,3.8763,3.8788,3.8808,3.8769,3.8925,3.894,3.8953,3.9001,3.902,3.8791,3.8791,3.879,3.879,0,3.833,3.8397,3.8459,3.8515,3.8555,3.8632,3.8634,3.8675,3.8663,3.867,3.8761,3.879,3.8847,3.8874,3.8863,3.8981,3.8961,3.8927,3.8864,3.8979,3.9023,3.9041,3.8798,3.8797,3.8795,3.8794,0,0,3.8515,3.8565,3.8587,3.861,3.8654,3.8705,3.8779,3.8836,3.887,3.8911,3.8971,3.9056,3.9024,3.9055,3.9047,3.9099,3.921,3.9057,3.9058,3.9082,3.9338,3.9362,3.9383,3.9193,3.9196,3.9199,3.9334,0,3.8654,3.8785,3.8779,3.89,3.896,3.8927,3.8992,3.9024,3.9033,3.9084,3.9094,3.9152,3.9107,3.9125,3.9175,3.9186,3.9261,3.9177,3.9246,3.9249,3.9234,3.9407,3.9432,3.9558,3.9351,3.9354,3.9357,0,3.8834,3.888,3.9008,3.9039,3.9064,3.9123,3.9172,3.9223,3.9258,3.926,3.9295,3.9278,3.9351,3.9289,3.9388,3.9331,3.9359,3.9369,3.9374,3.9378,3.9308,3.9412,3.9598,3.9616,3.9384,3.9382,3.938,0,3.8952,3.9046,3.9133,3.9155,3.9195,3.9236,3.9255,3.9287,3.932,3.9364,3.9385,3.9437,3.9465,3.9504,3.9501,3.9457,3.96,3.9539,3.9602,3.9602,3.9632,3.963,3.9822,3.9656,3.9655,3.9655,3.9655,0,3.9106,3.9185,3.9186,3.924,3.9326,3.9318,3.9402,3.9416,3.9445,3.9499,3.9474,3.9525,3.9519,3.957,3.9568,3.9648,3.9662,3.9664,3.9662,3.9665,3.9664,3.9681,3.9671,3.966,3.9659,3.9658,3.9657,0,3.9251,3.9256,3.9348,3.9378,3.9388,3.9449,3.9474,3.9524,3.953,3.9599,3.9615,3.9625,3.9683,3.9684,3.9752,3.975,3.9847,3.9837,3.9835,3.9832,3.9894,3.9887,4.0102,4.0128,3.9947,3.9949,3.9951,0,3.9348,3.9407,3.9443,3.9478,3.9499,3.9555,3.9589,3.9583,3.9619,3.9663,3.9706,3.9763,3.9807,3.9901,3.9914,3.9964,3.9953,4.0025,3.996,3.996,3.995,3.9945,3.9949,4.0036,4.0038,4.004,4.0041,0,3.9518,3.9517,3.9567,3.9618,3.9659,3.9698,3.9735,3.9764,3.9762,3.9803,3.9863,3.9897,3.9965,4.002,4.0068,4.0086,4.0062,4.0062,4.0079,4.008,4.0075,4.0075,3.9866,4.0056,4.0055,4.0054,4.0053,4.0052,3.964,3.969,3.9722,3.9778,3.9805,3.9839,3.9886,3.9898,3.9947,4.0002,3.9996,4.0061,4.0092,4.0155,4.0177,4.0226,4.0201,4.0226,4.0232,4.0237,4.0242,4.007,4.0236,4.0235,4.0235,4.0234,4.0234,0,3.9806,3.9825,3.9876,3.9927,3.9971,3.9946,3.9985,4.0022,4.008,4.0111,4.0155,4.0222,4.0275,4.0291,4.0341,4.0378,4.0368,4.0391,4.0387,4.039,4.0264,4.0243,4.0398,4.0398,4.0398,4.0398,4.0398,4.0398,3.9897,3.9979,3.9981,4.0075,4.0094,4.0157,4.0181,4.0211,4.0236,4.0312,4.0355,4.0366,4.039,4.0442,4.0489,4.0492,4.051,4.0537,4.0535,4.0416,4.04,4.0384,4.0364,4.0542,4.0542,4.0657,4.0658,4.0659]},{"header":{"parameterUnit":"m.s-1","parameterCategory":1,"la1":30.2991,"la2":30.254,"lo1":-89.0895,"lo2":-89.0444,"dy":0.0017,"dx":0.0017,"nx":28,"ny":28,"refTime":"2023-09-12T03:00:00:Z","depth":0,"parameterNumber":3,"parameterNumberName":"V-component_of_WINDS"},"data":[0,0,0,0,0,0,0,0,0,0,0,0,0,0,0,0,0,0,0,0,0,0,0,0,0,0,0,0,0,0,0,0,0,0,0,0,0,0,0,0,0,0,0,0,0,0,0,0,0,0,0,0,0,0,0,0,0,0,2.2057,2.2058,0,2.2115,2.2116,2.2117,2.2098,2.2097,2.2096,2.2094,2.2152,2.2154,2.2157,0,0,0,0,0,0,0,0,0,0,0,0,0,2.1927,2.1929,2.2057,2.2058,2.2059,2.2115,2.2116,2.2117,2.2098,2.2097,2.2095,2.2094,2.2151,2.2154,2.2157,0,0,0,0,0,0,0,0,0,0,0,0,0,2.1984,2.193,2.2057,2.2056,2.2057,2.2115,2.2116,2.2117,2.2099,2.2097,2.2095,2.2093,2.215,2.2154,2.2157,2.2219,0,0,2.217,2.2171,0,0,0,0,0,0,0,0,2.1981,2.1989,2.2056,2.2056,2.2057,2.2098,2.2091,2.2151,2.2099,2.2083,2.2094,2.2092,2.2135,2.214,2.2155,2.2222,2.2224,2.217,2.2172,2.2174,2.2175,0,0,0,0,0,0,0,2.1977,2.1986,2.208,2.2057,2.2058,2.2052,2.2058,2.2102,2.2118,2.2084,2.2083,2.209,2.2135,2.2151,2.2156,2.2225,2.217,2.2173,2.2176,2.2178,2.2343,2.2345,0,0,0,0,0,0,2.1973,2.1983,2.2078,2.2082,2.2014,2.2056,2.2062,2.2086,2.2118,2.2121,2.2092,2.2089,2.2145,2.2151,2.2158,2.2231,2.2174,2.2178,2.218,2.2341,2.2343,2.2345,0,0,0,0,0,0,2.197,2.1981,2.2076,2.2032,2.2044,2.206,2.2087,2.2089,2.2105,2.2124,2.2126,2.2105,2.2144,2.2152,2.2204,2.2232,2.218,2.2183,2.2338,2.2342,2.2344,2.2378,0,0,0,0,0,0,2.1966,2.1981,2.2005,2.2033,2.2046,2.2122,2.2089,2.2091,2.2112,2.2109,2.2137,2.214,2.2143,2.2198,2.2208,2.2237,2.2186,2.2336,2.234,2.2343,2.2374,2.2381,2.2388,0,0,0,0,0,2.1962,2.2012,2.2007,2.2018,2.2077,2.2124,2.2131,2.2134,2.2114,2.2138,2.215,2.2139,2.2228,2.2203,2.2214,2.2245,2.2334,2.2339,2.2343,2.2371,2.238,2.2388,0,0,0,0,0,0,2.1987,2.2016,2.201,2.2071,2.2095,2.212,2.2151,2.2144,2.2174,2.217,2.2172,2.2178,2.223,2.2243,2.2215,2.2305,2.2278,2.2285,2.2295,2.2304,2.2311,2.2306,2.219,0,0,0,0,0,2.2,2.2036,2.2059,2.2111,2.2123,2.2135,2.2155,2.2156,2.218,2.219,2.2206,2.2229,2.2262,2.2284,2.2315,2.2376,2.238,2.2402,2.2409,2.2414,2.242,2.2451,2.246,2.236,2.236,2.236,0,0,2.2027,2.2047,2.207,2.2116,2.2135,2.2171,2.2144,2.2184,2.221,2.2196,2.2245,2.2257,2.2283,2.2339,2.2364,2.2351,2.2449,2.242,2.2424,2.2427,2.2456,2.2466,2.2474,2.2363,2.2363,2.2362,0,0,2.2094,2.2114,2.2158,2.2177,2.2205,2.2213,2.2223,2.225,2.2257,2.2307,2.2296,2.2327,2.2384,2.2403,2.2419,2.2491,2.2481,2.2501,2.2537,2.2567,2.2575,2.2582,2.2606,2.2614,2.2507,2.2507,2.2507,0,2.2124,2.2179,2.2182,2.2222,2.2242,2.2231,2.2275,2.2293,2.233,2.2343,2.2328,2.2398,2.2415,2.2474,2.2491,2.2506,2.2516,2.2498,2.2573,2.258,2.2587,2.261,2.2619,2.2509,2.2509,2.2509,2.2509,0,2.2213,2.2251,2.2283,2.2319,2.2342,2.2384,2.2392,2.2415,2.2413,2.2421,2.247,2.249,2.2525,2.2539,2.2537,2.2597,2.2587,2.2573,2.2545,2.2599,2.262,2.2629,2.2512,2.2512,2.2511,2.251,0,0,2.2299,2.2335,2.2346,2.2362,2.2391,2.242,2.246,2.2494,2.2513,2.2539,2.2571,2.2619,2.2605,2.2625,2.2625,2.2651,2.2704,2.2633,2.2634,2.2644,2.2769,2.2779,2.2789,2.2698,2.27,2.2701,2.2766,0,2.2367,2.2439,2.2442,2.2507,2.2541,2.253,2.2565,2.2586,2.2594,2.2623,2.2632,2.2665,2.2646,2.2657,2.2682,2.2693,2.2729,2.2688,2.2727,2.2728,2.272,2.2801,2.2812,2.2873,2.2775,2.2776,2.2777,0,2.2457,2.2485,2.2554,2.2577,2.2591,2.2622,2.2652,2.2681,2.2704,2.2708,2.2728,2.2724,2.2763,2.2734,2.2788,2.2759,2.2775,2.2782,2.2785,2.2788,2.2756,2.2805,2.2893,2.2901,2.2791,2.279,2.2789,0,2.2511,2.2566,2.2613,2.2627,2.2656,2.2677,2.269,2.2711,2.2731,2.2757,2.2769,2.2799,2.2815,2.2838,2.2841,2.282,2.2894,2.2866,2.2897,2.2897,2.2913,2.2912,2.3003,2.2925,2.2925,2.2924,2.2924,0,2.2587,2.2629,2.2638,2.2667,2.2713,2.2715,2.276,2.277,2.2789,2.2819,2.2811,2.2839,2.2842,2.287,2.2873,2.2915,2.2923,2.2926,2.2926,2.2926,2.2926,2.2936,2.2932,2.2927,2.2926,2.2926,2.2925,0,2.2655,2.2663,2.2714,2.2736,2.2742,2.2775,2.2794,2.282,2.2828,2.2865,2.2874,2.2885,2.2918,2.2923,2.2961,2.2963,2.3013,2.301,2.3006,2.3005,2.3035,2.3032,2.3136,2.3149,2.3063,2.3064,2.3065,0,2.2702,2.2734,2.276,2.2779,2.2793,2.2825,2.2845,2.2847,2.2868,2.2895,2.2918,2.295,2.2976,2.3028,2.3039,2.3067,2.3063,2.3098,2.3068,2.3066,2.3062,2.306,2.3062,2.3103,2.3104,2.3105,2.3106,0,2.2785,2.2787,2.2816,2.2847,2.287,2.2894,2.2916,2.2932,2.2937,2.2961,2.2994,2.3014,2.3053,2.3084,2.3112,2.3123,2.3115,2.3115,2.3124,2.3124,2.312,2.3121,2.3021,2.3113,2.3112,2.3111,2.3111,2.3111,2.2844,2.2871,2.2892,2.2925,2.2941,2.2962,2.2988,2.2998,2.3026,2.3058,2.3058,2.3094,2.3114,2.3151,2.3164,2.3191,2.318,2.3193,2.3196,2.3198,2.3201,2.3116,2.3196,2.3196,2.3196,2.3196,2.3196,0,2.2925,2.2938,2.2968,2.2999,2.3024,2.3014,2.3038,2.3059,2.3091,2.311,2.3135,2.3173,2.3202,2.3215,2.3243,2.3263,2.3259,2.327,2.3268,2.327,2.321,2.3199,2.3272,2.3272,2.3272,2.3272,2.3272,2.3272,2.297,2.3015,2.3019,2.3071,2.3084,2.312,2.3134,2.3152,2.3167,2.3209,2.3234,2.3242,2.3258,2.3288,2.3314,2.3316,2.3327,2.3339,2.334,2.3283,2.3275,2.3268,2.3257,2.3341,2.3341,2.3398,2.3398,2.3399]}]]